Tracking 27079 objects as of 23-Mar-2023
HD Live streaming from Space Station
objects crossing your sky now

SCOUT B-1 DEB

Track SCOUT B-1 DEB now!
10-day predictions


NORAD ID: 6284
Int'l Code: 1972-069D
Perigee: 652.9 km
Apogee: 717.4 km
Inclination: 90.5 °
Period: 98.3 minutes
Semi major axis: 7056 km
RCS: 0.034 m2 (small)
Launch date: September 2, 1972
Source: United States (US)
Launch site: AIR FORCE WESTERN TEST RANGE (AFWTR)

Note: This is SATELLITE DEBRIS
Your satellite tracking list
Your tracking list is empty




NASA's NSSDC Master Catalog

Two Line Element Set (TLE):
1 06284U 72069D   23081.70844457  .00003094  00000-0  57043-3 0  9995
2 06284  90.4928 279.2580 0045704  29.7244 330.6553 14.64717818574698
Source of the keplerian elements: AFSPC